Location: ?????????
(41.2286°N, 23.0068°E)
Time: 01:56:54
(UTC+00:00)

Cosmos 2346 Rocket - Pass Details

Date: 08 November 2025
Orbit: 935 x 979 km, 82.9° (Epoch: 07 December)

Event Time Altitude Azimuth Distance (km) Brightness Sun altitude
Rises 04:06:46 0° 186° (S) 3,642 7.6 -11.8°
Reaches altitude 10° 04:09:16 10° 186° (S) 2,693 6.9 -11.3°
Maximum altitude 04:15:26 88° 274° (W) 963 4.5 -10.2°
Drops below altitude 10° 04:21:35 10° 7° (N) 2,679 6.7 -9.1°
Sets 04:24:04 0° 8° (N) 3,623 7.4 -8.6°
